Renton, WA

7:25 PM PDT on August 23, 2016 (GMT -0700)
Renton Municipal

Weather History for KRNT - October, 2011

Change the Weather History Date:

Sunday, October 2, 2011

  Actual Average Record
Temperature  
Mean Temperature 58 °F -  
Max Temperature 64 °F 64 °F 73 °F (2004)
Min Temperature 51 °F 48 °F 41 °F (2002)
Degree Days  
Heating Degree Days 8    
Growing Degree Days 8 (Base 50)    
Moisture  
Dew Point 52 °F    
Average Humidity 84    
Maximum Humidity 94    
Minimum Humidity 60    
Precipitation  
Precipitation 0.13 in - - ()
Sea Level Pressure  
Sea Level Pressure 29.93 in    
Wind  
Wind Speed 1 mph (NNW)    
Max Wind Speed 7 mph    
Max Gust Speed 17 mph    
Visibility 10 miles    
Events Rain    
Averages and records for this station are not official NWS values.
T = Trace of Precipitation, MM = Missing Value Source: NWS Daily Summary

Daily Weather History Graph

Daily Weather History Graph

Search for Another Location

Airport or City:

Trip Planner

Search our weather history database for the weather conditions in past years. The results will help you decide how hot, cold, wet, or windy it might be!

Date:

Astronomy

Oct. 02, 2011 Rise Set
Actual Time 7:09 AM PDT 6:46 PM PDT
Civil Twilight 6:38 AM PDT 7:17 PM PDT
Nautical Twilight 6:02 AM PDT 7:52 PM PDT
Astronomical Twilight 5:26 AM PDT 8:28 PM PDT
Moon 1:45 PM PDT (10/2) 10:26 PM PDT (10/2)
Length of Visible Light 12h 38m
Length of Day
11h 37m
Waxing Crescent, 36% of the Moon is Illuminated
Oct 2
Waxing Crescent
Oct 3
First Quarter
Oct 11
Full
Oct 19
Last Quarter
Oct 26
New

Hourly Weather History & Observations

Time (PDT) Temp. Dew Point Humidity Pressure Visibility Wind Dir Wind Speed Gust Speed Precip Events Conditions
12:53 AM 53.1 °F 51.1 °F 93% 29.99 in 10.0 mi Calm Calm - N/A   Overcast
1:53 AM 53.6 °F 50.0 °F 88% 29.96 in 10.0 mi Calm Calm - N/A   Mostly Cloudy
2:53 AM 51.8 °F 50.0 °F 94% 29.96 in 10.0 mi Calm Calm - N/A   Overcast
3:53 AM 53.1 °F 48.9 °F 86% 29.98 in 10.0 mi Calm Calm - N/A   Overcast
4:53 AM 53.6 °F 50.0 °F 88% 29.95 in 10.0 mi Calm Calm - N/A   Overcast
5:10 AM 53.6 °F 50.0 °F 88% 29.95 in 10.0 mi Calm Calm - N/A   Overcast
5:22 AM 53.6 °F 50.0 °F 88% 29.95 in 10.0 mi Calm Calm - N/A   Overcast
5:53 AM 54.0 °F 51.1 °F 90% 29.96 in 10.0 mi NNW 4.6 mph - N/A   Overcast
6:53 AM 53.6 °F 51.8 °F 94% 29.95 in 10.0 mi Calm Calm - N/A   Overcast
7:53 AM 54.0 °F 51.1 °F 90% 29.96 in 10.0 mi North 3.5 mph - N/A   Overcast
8:53 AM 54.0 °F 51.1 °F 90% 29.96 in 10.0 mi Calm Calm - N/A   Overcast
9:53 AM 55.0 °F 51.1 °F 86% 29.96 in 10.0 mi NW 3.5 mph - N/A   Overcast
10:53 AM 57.0 °F 51.1 °F 81% 29.96 in 10.0 mi NNW 3.5 mph - N/A   Mostly Cloudy
11:53 AM 60.1 °F 50.0 °F 69% 29.95 in 10.0 mi Calm Calm - N/A   Mostly Cloudy
12:53 PM 62.1 °F 51.1 °F 67% 29.94 in 10.0 mi Variable 4.6 mph - N/A   Partly Cloudy
1:53 PM 63.0 °F 51.1 °F 65% 29.92 in 10.0 mi NNW 4.6 mph - N/A   Scattered Clouds
2:53 PM 64.0 °F 50.0 °F 60% 29.91 in 10.0 mi SW 3.5 mph - N/A   Mostly Cloudy
3:53 PM 64.0 °F 50.0 °F 60% 29.90 in 10.0 mi Calm Calm - N/A   Mostly Cloudy
4:53 PM 63.0 °F 52.0 °F 67% 29.89 in 9.0 mi Calm Calm - 0.00 in Rain Light Rain
5:53 PM 57.9 °F 54.0 °F 87% 29.91 in 3.0 mi South 6.9 mph 17.3 mph 0.01 in Rain Rain
6:53 PM 57.0 °F 54.0 °F 89% 29.88 in 10.0 mi Calm Calm - 0.02 in   Overcast
7:53 PM 57.9 °F 55.0 °F 90% 29.88 in 10.0 mi Variable 3.5 mph - 0.04 in Rain Light Rain
8:53 PM 57.0 °F 55.0 °F 93% 29.88 in 8.0 mi East 3.5 mph - 0.03 in Rain Light Rain
9:53 PM 57.0 °F 54.0 °F 89% 29.88 in 9.0 mi Calm Calm - 0.02 in Rain Light Rain
10:53 PM 55.9 °F 53.1 °F 90% 29.87 in 10.0 mi SE 3.5 mph - 0.01 in Rain Light Rain
11:53 PM 55.4 °F 53.6 °F 94% 29.83 in 10.0 mi SE 3.5 mph - N/A Rain Light Rain